• Em Portugal
  • Lista de países
  • Para 7 dias
  • Temperatura da água
  • Mapas de satélite
  • Mapa do tempo
  • Widgets de tempo
  • user-avatar
    Iniciar Sessão

    Previsão horária em Trypolis

    Hoje, 24 Fevereiro, Sábado

    Tempo Temperatura Precipitação Vento Pressão Humidade
    00:00 +11°C° 0 mm 6 m/s 756 mmHg 37%
    01:00 +10°C° 0 mm 7 m/s 756 mmHg 39%
    02:00 +10°C° 0 mm 6 m/s 756 mmHg 38%
    03:00 +10°C° 0 mm 6 m/s 756 mmHg 38%
    04:00 +10°C° 0 mm 5 m/s 756 mmHg 38%
    05:00 +10°C° 0 mm 5 m/s 757 mmHg 37%
    06:00 +10°C° 0 mm 5 m/s 757 mmHg 37%
    07:00 +11°C° 0 mm 4 m/s 757 mmHg 37%
    08:00 +14°C° 0 mm 4 m/s 757 mmHg 33%
    09:00 +17°C° 0 mm 4 m/s 757 mmHg 29%
    10:00 +20°C° 0 mm 4 m/s 757 mmHg 24%
    11:00 +21°C° 0 mm 4 m/s 757 mmHg 22%
    12:00 +22°C° 0 mm 4 m/s 757 mmHg 21%
    13:00 +25°C° 0 mm 4 m/s 756 mmHg 19%
    14:00 +25°C° 0 mm 4 m/s 756 mmHg 18%
    15:00 +25°C° 0 mm 4 m/s 755 mmHg 18%
    16:00 +25°C° 0 mm 4 m/s 755 mmHg 17%
    17:00 +23°C° 0 mm 4 m/s 755 mmHg 19%
    18:00 +22°C° 0 mm 4 m/s 754 mmHg 21%
    19:00 +21°C° 0 mm 5 m/s 754 mmHg 22%
    20:00 +21°C° 0 mm 5 m/s 754 mmHg 22%
    21:00 +20°C° 0 mm 5 m/s 754 mmHg 22%
    22:00 +20°C° 0 mm 6 m/s 754 mmHg 22%
    23:00 +20°C° 0 mm 5 m/s 754 mmHg 26%

    Amanhã, 25 Fevereiro, Domingo

    Tempo Temperatura Precipitação Vento Pressão Humidade
    00:00 +19°C° 0 mm 5 m/s 754 mmHg 31%
    01:00 +19°C° 0 mm 4 m/s 754 mmHg 35%
    02:00 +19°C° 0 mm 5 m/s 753 mmHg 41%
    03:00 +17°C° 0 mm 5 m/s 753 mmHg 48%
    04:00 +17°C° 0 mm 6 m/s 752 mmHg 55%
    05:00 +17°C° 0 mm 6 m/s 752 mmHg 57%
    06:00 +17°C° 0 mm 7 m/s 752 mmHg 59%
    07:00 +18°C° 0 mm 7 m/s 752 mmHg 60%
    08:00 +20°C° 0 mm 8 m/s 752 mmHg 55%
    09:00 +21°C° 0 mm 9 m/s 752 mmHg 49%
    10:00 +22°C° 0 mm 9 m/s 753 mmHg 44%
    11:00 +23°C° 0 mm 9 m/s 753 mmHg 39%
    12:00 +24°C° 0 mm 9 m/s 752 mmHg 35%
    13:00 +27°C° 0 mm 9 m/s 752 mmHg 31%
    14:00 +26°C° 0 mm 9 m/s 752 mmHg 34%
    15:00 +24°C° 0 mm 9 m/s 752 mmHg 38%
    16:00 +23°C° 0 mm 10 m/s 753 mmHg 41%
    17:00 +21°C° 0 mm 9 m/s 753 mmHg 54%
    18:00 +17°C° 0 mm 8 m/s 754 mmHg 67%
    19:00 +15°C° 0 mm 8 m/s 754 mmHg 80%
    20:00 +15°C° 0 mm 7 m/s 755 mmHg 78%
    21:00 +15°C° 0 mm 6 m/s 756 mmHg 76%
    22:00 +15°C° 0 mm 5 m/s 756 mmHg 74%
    23:00 +14°C° 0,1 mm 5 m/s 756 mmHg 75%

    Depois de amanhã, 26 Fevereiro, Segunda-feira

    Tempo Temperatura Precipitação Vento Pressão Humidade
    00:00 +14°C° 0,1 mm 5 m/s 757 mmHg 76%
    01:00 +14°C° 0,1 mm 5 m/s 757 mmHg 76%
    02:00 +14°C° 0,1 mm 5 m/s 757 mmHg 78%
    03:00 +13°C° 0,1 mm 5 m/s 756 mmHg 79%
    04:00 +13°C° 0,1 mm 5 m/s 756 mmHg 80%
    05:00 +12°C° 0 mm 5 m/s 757 mmHg 82%
    06:00 +12°C° 0 mm 5 m/s 757 mmHg 84%
    07:00 +12°C° 0 mm 5 m/s 757 mmHg 86%
    08:00 +13°C° 0 mm 5 m/s 757 mmHg 77%
    09:00 +14°C° 0 mm 5 m/s 758 mmHg 69%
    10:00 +15°C° 0 mm 6 m/s 758 mmHg 60%
    11:00 +16°C° 0 mm 6 m/s 758 mmHg 52%
    12:00 +17°C° 0 mm 6 m/s 757 mmHg 44%
    13:00 +20°C° 0 mm 6 m/s 757 mmHg 36%
    14:00 +20°C° 0 mm 5 m/s 757 mmHg 34%
    15:00 +20°C° 0 mm 4 m/s 757 mmHg 31%
    16:00 +20°C° 0 mm 4 m/s 756 mmHg 29%
    17:00 +19°C° 0 mm 3 m/s 756 mmHg 34%
    18:00 +18°C° 0 mm 3 m/s 756 mmHg 39%
    19:00 +17°C° 0 mm 2 m/s 756 mmHg 44%
    20:00 +17°C° 0 mm 3 m/s 756 mmHg 40%
    21:00 +17°C° 0 mm 4 m/s 756 mmHg 36%
    22:00 +16°C° 0 mm 5 m/s 756 mmHg 32%
    23:00 +16°C° 0 mm 5 m/s 756 mmHg 33%

    27 Fevereiro, Terça-feira

    Tempo Temperatura Precipitação Vento Pressão Humidade
    00:00 +16°C° 0 mm 5 m/s 755 mmHg 34%
    01:00 +16°C° 0 mm 5 m/s 755 mmHg 35%
    02:00 +16°C° 0 mm 6 m/s 754 mmHg 34%
    03:00 +16°C° 0 mm 6 m/s 754 mmHg 33%
    04:00 +16°C° 0 mm 7 m/s 753 mmHg 32%
    05:00 +17°C° 0 mm 7 m/s 753 mmHg 32%
    06:00 +17°C° 0 mm 8 m/s 752 mmHg 32%
    07:00 +17°C° 0 mm 8 m/s 752 mmHg 32%
    08:00 +21°C° 0 mm 9 m/s 752 mmHg 29%
    09:00 +23°C° 0 mm 10 m/s 752 mmHg 27%
    10:00 +27°C° 0 mm 10 m/s 752 mmHg 24%
    11:00 +28°C° 0 mm 10 m/s 751 mmHg 22%
    12:00 +29°C° 0 mm 9 m/s 751 mmHg 20%
    13:00 +31°C° 0 mm 9 m/s 750 mmHg 19%
    14:00 +31°C° 0 mm 8 m/s 750 mmHg 19%
    15:00 +30°C° 0 mm 7 m/s 749 mmHg 19%
    16:00 +30°C° 0 mm 5 m/s 749 mmHg 19%
    17:00 +28°C° 0 mm 5 m/s 749 mmHg 24%
    18:00 +26°C° 0 mm 5 m/s 750 mmHg 29%
    19:00 +23°C° 0 mm 4 m/s 751 mmHg 34%
    20:00 +22°C° 0 mm 5 m/s 752 mmHg 44%
    21:00 +20°C° 0 mm 6 m/s 753 mmHg 53%
    22:00 +18°C° 0 mm 7 m/s 754 mmHg 63%
    23:00 +17°C° 0,1 mm 8 m/s 754 mmHg 70%

    28 Fevereiro, Quarta-feira

    Tempo Temperatura Precipitação Vento Pressão Humidade
    00:00 +16°C° 0,1 mm 8 m/s 755 mmHg 76%
    01:00 +15°C° 0,1 mm 9 m/s 756 mmHg 83%
    02:00 +15°C° 0 mm 8 m/s 756 mmHg 81%
    03:00 +15°C° 0 mm 8 m/s 757 mmHg 79%
    04:00 +15°C° 0 mm 7 m/s 757 mmHg 78%
    05:00 +14°C° 0 mm 6 m/s 758 mmHg 80%
    06:00 +14°C° 0 mm 5 m/s 758 mmHg 83%
    07:00 +13°C° 0 mm 4 m/s 759 mmHg 85%
    08:00 +14°C° 0 mm 4 m/s 759 mmHg 78%
    09:00 +16°C° 0 mm 3 m/s 760 mmHg 72%
    10:00 +17°C° 0 mm 3 m/s 761 mmHg 65%
    11:00 +19°C° 0 mm 3 m/s 761 mmHg 58%
    12:00 +20°C° 0 mm 2 m/s 761 mmHg 51%
    13:00 +21°C° 0 mm 2 m/s 761 mmHg 44%
    14:00 +21°C° 0 mm 2 m/s 761 mmHg 42%
    15:00 +23°C° 0 mm 2 m/s 760 mmHg 40%
    16:00 +22°C° 0 mm 3 m/s 760 mmHg 38%
    17:00 +21°C° 0 mm 3 m/s 760 mmHg 42%
    18:00 +21°C° 0 mm 4 m/s 761 mmHg 45%
    19:00 +20°C° 0 mm 5 m/s 761 mmHg 48%
    20:00 +19°C° 0 mm 5 m/s 761 mmHg 49%
    21:00 +19°C° 0 mm 6 m/s 761 mmHg 50%
    22:00 +17°C° 0 mm 6 m/s 762 mmHg 50%
    23:00 +17°C° 0 mm 6 m/s 761 mmHg 51%

    1 Março, Quinta-feira

    Tempo Temperatura Precipitação Vento Pressão Humidade
    00:00 +17°C° 0 mm 7 m/s 761 mmHg 52%
    01:00 +17°C° 0 mm 7 m/s 761 mmHg 53%
    02:00 +16°C° 0 mm 7 m/s 761 mmHg 54%
    03:00 +16°C° 0 mm 6 m/s 760 mmHg 55%
    04:00 +16°C° 0 mm 6 m/s 760 mmHg 55%
    05:00 +16°C° 0 mm 6 m/s 760 mmHg 55%
    06:00 +16°C° 0 mm 6 m/s 760 mmHg 54%
    07:00 +16°C° 0 mm 6 m/s 760 mmHg 53%
    08:00 +20°C° 0 mm 6 m/s 760 mmHg 44%
    09:00 +22°C° 0 mm 6 m/s 760 mmHg 35%
    10:00 +26°C° 0 mm 6 m/s 760 mmHg 26%
    11:00 +27°C° 0 mm 6 m/s 759 mmHg 24%
    12:00 +28°C° 0 mm 6 m/s 759 mmHg 21%
    13:00 +30°C° 0 mm 6 m/s 758 mmHg 18%
    14:00 +30°C° 0 mm 5 m/s 757 mmHg 17%
    15:00 +30°C° 0 mm 5 m/s 757 mmHg 16%
    16:00 +32°C° 0 mm 5 m/s 756 mmHg 15%
    17:00 +29°C° 0 mm 5 m/s 756 mmHg 17%
    18:00 +27°C° 0 mm 6 m/s 756 mmHg 19%
    19:00 +26°C° 0 mm 6 m/s 755 mmHg 22%
    20:00 +24°C° 0 mm 7 m/s 755 mmHg 22%
    21:00 +24°C° 0 mm 8 m/s 755 mmHg 23%
    22:00 +24°C° 0 mm 9 m/s 755 mmHg 23%
    23:00 +24°C° 0 mm 9 m/s 754 mmHg 22%
    Mostrar mais